Regional Weather Roundup
Issued by NWS

Home | Current Version | Previous Version | Text Only | Print | Product List | Glossary Off
Versions: 1 2 3 4 5 6 7 8 9 10 11 12 13 14 15 16 17 18 19 20 21 22 23 24 25 26 27 28 29 30 31 32 33 34 35 36 37 38 39 40 41 42 43 44 45 46 47 48 49 50

000
ASUS43 KFSD 300302
RWRSD

WEATHER ROUNDUP FOR SOUTH DAKOTA
NATIONAL WEATHER SERVICE SIOUX FALLS SD
1000 PM CDT MON MAY 29 2017

NOTE: "FAIR" INDICATES FEW OR NO CLOUDS BELOW 12,000 FEET WITH NO
SIGNIFICANT WEATHER AND/OR OBSTRUCTIONS TO VISIBILITY.


SDZ001>005-009-010-012>017-300400-
NORTHWEST AND NORTH CENTRAL SOUTH DAKOTA

CITY           SKY/WX    TMP DP  RH WIND       PRES   REMARKS
BUFFALO          N/A     56  31  38 N14       30.03R
FAITH            N/A     52  32  46 N9        30.06R
MOBRIDGE       MOCLDY    55  37  50 NW8       29.99R
$$

SDZ012>016-024>037-041>051-057-063-072>074-300400-
SOUTHWEST AND SOUTH CENTRAL SOUTH DAKOTA

CITY           SKY/WX    TMP DP  RH WIND       PRES   REMARKS
RAPID CTY ARPT CLEAR     51  30  44 N12       30.10R
PIERRE         CLEAR     55  34  45 N7        30.02R
CUSTER         CLEAR     49  23  36 NW3       30.18R
ELLSWORTH AFB  CLEAR     51  31  45 NW10      30.10R
PHILIP         CLEAR     52  34  50 NW8       30.06R
PINE RIDGE     CLEAR     55  36  48 N3        30.12R
SPEARFISH      FAIR      54  28  37 CALM      30.13S
WINNER         FAIR      59  39  47 N5        30.04R
$$

SDZ004>011-016>023-039-040-300400-
NORTHEAST SOUTH DAKOTA

CITY           SKY/WX    TMP DP  RH WIND       PRES   REMARKS
ABERDEEN       CLOUDY    56  38  50 NW6       29.97S
WATERTOWN      CLOUDY    52  41  66 NW7       29.96S
BROOKINGS      CLEAR     52  43  71 NW6       29.98R
SISSETON         N/A     56  44  64 NW8       29.93R
$$

SDZ017-020-022-023-036>040-048>070-300400-
SOUTHEAST SOUTH DAKOTA

CITY           SKY/WX    TMP DP  RH WIND       PRES   REMARKS
SIOUX FALLS    PTCLDY    52  44  74 NW6       29.98S
HURON          CLEAR     50  38  63 W5        29.99R
CHAMBERLAIN    PTCLDY    58  39  49 NW3       30.03R
MITCHELL       PTCLDY    59  47  64 CALM      30.00R
YANKTON        CLEAR     55  45  68 N7        30.00S
$$

ABBREVIATIONS USED IN REMARKS
   TC - TEMPERATURE IN CELSIUS
  WCI - WIND CHILL INDEX
   HX - HEAT INDEX
  VSB - VISIBILITY




USA.gov is the U.S. government's official web portal to all federal, state and local government web resources and services.